Regional Weather Roundup
Issued by NWS Wakefield, VA

Home | Current Version | Previous Version | Graphics & Text | Print | Product List | Glossary On
Versions: 1 2 3 4 5 6 7 8 9 10 11 12 13 14 15 16 17 18 19 20 21 22 23 24 25 26 27 28 29 30 31 32 33 34 35 36 37 38 39 40 41 42 43 44 45 46 47 48
000
ASUS41 KAKQ 280515
RWRAKQ

REGIONAL WEATHER ROUNDUP
NATIONAL WEATHER SERVICE WAKEFIELD VA
100 AM EDT FRI AUG 28 2015

Note: "fair" indicates few or no clouds below 12,000 feet with no
significant weather and/or obstructions to visibility. * = Denotes
station may not report precipitation (e.g., rain,snow,etc.),
thunder or fog.

VAZ042-051-052>054-056-280600-
NORTHERN VIRGINIA

CITY           SKY/WX    TMP DP  RH WIND       PRES   REMARKS
WASH NATIONAL  PTCLDY    71  59  65 CALM      30.17R
DULLES         PTCLDY    62  56  80 NW3       30.17S
FORT BELVOIR   CLEAR     61  58  92 CALM      30.16S
QUANTICO       CLEAR     64  59  83 NW7       30.17R
FREDERICKSBRG* CLEAR     64  60  86 CALM      30.15R
STAFFORD*      CLEAR     58  56  94 NW3       30.20R
WARRENTON      CLOUDY    60  60  97 CALM      30.17R
CULPEPER*      CLOUDY    62  59  91 CALM      30.18R
MANASSAS*      MOCLDY    61  61 100 CALM      30.17S
LEESBURG*      CLEAR     61  61 100 SW5       30.19R
WINCHESTER     PTCLDY    61  54  77 CALM      30.19R
FRONT ROYAL*   CLOUDY    61  55  82 CALM      30.18S
LURAY*         MOCLDY    59  55  88 CALM      30.19S
$$

VAZ048-049-060>072-079>083-280600-
CENTRAL AND SOUTH CENTRAL VIRGINIA

CITY           SKY/WX    TMP DP  RH WIND       PRES   REMARKS
RICHMOND       PTCLDY    65  61  87 CALM      30.15R
CHESTERFIELD*  FAIR      61  48  63 CALM      30.16S
PETERSBURG*    CLEAR     60  60 100 CALM      30.16R FOG
HANOVER        CLEAR     60  59  96 CALM      30.17S
TAPPAHANNOCK*  CLEAR     60  57  90 CALM      30.16R
QUINTON*       FAIR      60  60  97 CALM      30.15R
CHARLOTTSVILLE CLOUDY    66  59  78 CALM      30.18R
GORDONSVILLE*  CLOUDY    63  60  90 CALM      30.16S
ORANGE*        CLOUDY    66  59  77 CALM      30.18S
LOUISA*        PTCLDY    61  57  88 CALM      30.16S
BUMPASS*       FAIR      60  58  92 CALM      30.17R
FARMVILLE*     CLOUDY    64  60  85 CALM      30.15R
CREWE*         FAIR     N/A N/A N/A CALM      30.15S
FORT PICKETT*  FAIR      61  60  97 S5        30.16R
CHASE CITY*    FAIR      65  65 100 CALM      30.16R
CLARKSVILLE*   FAIR      64  63  94 CALM      30.15R
SOUTH HILL*    CLEAR     61  60  96 CALM      30.21R
LAWRENCEVILLE* FAIR      63  63 100 CALM      30.15S
EMPORIA*       CLEAR     59  59 100 CALM      30.16R FOG
$$

VAZ088>098-280600-
SOUTHEAST VIRGINIA

CITY           SKY/WX    TMP DP  RH WIND       PRES   REMARKS
NORFOLK        MOCLDY    75  57  53 NE8       30.13R
VIRGINIA BEACH CLOUDY    73  61  65 CALM      30.12S
NORFOLK NAVAL  MOCLDY    76  58  53 NE6       30.15R
WEST POINT*    CLEAR     61  58  91 CALM      30.16S
SALUDA*        FAIR      62  60  92 CALM      30.14R
NEWPORT NEWS   MOCLDY    63  59  87 N3        30.14R
LANGLEY AFB    PTCLDY    67  61  83 CALM      30.13R
FORT EUSTIS    MOCLDY    67  67 100 N1        30.12R
WILLIAMSBURG*  CLEAR     66  64  94 CALM      30.16R
HR EXEC AP*      N/A     64  61  88 CALM      30.15S
FRANKLIN*      MOCLDY    64  62  94 CALM      30.14S
WAKEFIELD      PTCLDY    61  58  90 CALM      30.14S
$$

VAZ020-022-025-037-045-280600-
WEST CENTRAL AND SOUTHWEST VIRGINIA

CITY           SKY/WX    TMP DP  RH WIND       PRES   REMARKS
STAUNTON*      CLOUDY    69  56  63 N3        30.22R
WAYNESBORO*    FAIR      67  56  69 CALM      30.21R
HOT SPRINGS VA MOCLDY    59  54  84 E5        30.26S
LYNCHBURG      PTCLDY    64  60  87 CALM      30.18S
DANVILLE       CLEAR     63  60  90 CALM      30.15S
SOUTH BOSTON*  FAIR      61  60  95 CALM      30.15R
MARTINSVILLE   PTCLDY    61  61 100 CALM      30.19S
ROANOKE        PTCLDY    68  60  75 CALM      30.19S
BLACKSBURG     PTCLDY    61  60  96 CALM      30.24R
DUBLIN*        CLOUDY    67  63  86 CALM      30.22S
MARION*        MOCLDY    62  60  93 CALM      30.24S
HILLSVILLE*    CLOUDY    64  58  80 CALM      30.22R
RICHLANDS*     MOCLDY    60  30  32 NE5       30.21F
WISE*          PTCLDY    63  54  72 NE3       30.22F
ABINGDON*      CLEAR     64  58  81 CALM      30.18S
$$

MDZ021>025-VAZ099-100-280600-
SOUTHERN MARYLAND AND THE DELMARVA PENINSULA

CITY           SKY/WX    TMP DP  RH WIND       PRES   REMARKS
PATUXENT RIVER CLEAR     61  58  90 CALM      30.15R
BAY BRIDGE APT   N/A     68  55  64 CALM      30.15S
LEONARDTOWN    CLEAR     61  57  88 CALM      30.17S
DOVER          CLEAR     64  58  82 NW6       30.13S
GEORGETOWN     CLEAR     61  58  90 CALM      30.15S
EASTON         NOT AVBL
CAMBRIDGE      CLEAR     61  57  88 CALM      30.15S
SALISBURY      PTCLDY    61  58  90 CALM      30.14S
OCEAN CITY     PTCLDY    62  59  90 NW3       30.14R
WALLOPS ISLAND PTCLDY    64  62  93 NW6       30.14S
ACCOMACK*      PTCLDY    59  59 100 CALM      30.14S
$$

NCZ012>017-030>032-280600-
NORTH CENTRAL AND EASTERN NORTH CAROLINA

CITY           SKY/WX    TMP DP  RH WIND       PRES   REMARKS
ROANOKE RAPIDS FAIR      61  59  94 CALM      30.14R
RALEIGH        MOCLDY    67  60  78 CALM      30.14R
ELIZABETH CITY CLOUDY    73  64  73 N6        30.12S
AHOSKIE*       MOCLDY    65  63  91 CALM      30.14S
EDENTON*       CLOUDY    69  63  80 CALM      30.12S
CURRITUCK*     CLOUDY    74  61  61 NE3       30.13S
KILL DEVIL HLS CLOUDY    75  61  60 NE7G17    30.10S
MANTEO         CLOUDY    74  63  68 NE12      30.11S
CAPE HATTERAS  PTCLDY    73  69  87 NE9       30.07S
TARBORO*       FAIR      64  63  95 CALM      30.14S
GOLDSBORO      PTCLDY    68  64  86 NE6       30.11R
WASHINGTON     CLOUDY    69  64  82 NE6       30.11S
GREENVILLE     MOCLDY    66  64  94 CALM      30.13S
NEW BERN       MOCLDY    70  63  78 NE5       30.11R
WILMINGTON     CLOUDY    70  66  87 NE8       30.08R
$$

VAZ048-280600-
ELSEWHERE

CITY           SKY/WX    TMP DP  RH WIND       PRES   REMARKS
HARRISBURG PA  MOCLDY    63  57  81 CALM      30.16R
BALTIMORE      PTCLDY    61  57  87 NW3       30.16R
ANNAPOLIS      CLEAR     68  64  87 CALM      30.15R
ANDREWS AFB    CLEAR     63  58  83 CALM      30.16R
PHILADELPHIA   PTCLDY    68  55  63 N6        30.16R
HENDERSON NC   CLEAR     63  60  87 CALM      30.16R
GREENSBORO     PTCLDY    69  60  73 NE3       30.15S
ROCKY MOUNT    PTCLDY    65  62  90 CALM      30.13S
$$

VAZ100-280600-
MARINE

STATION/POSITION TIME  TEMP    WIND        PRES    WAVE   SWELL
                       AIR SEA DIR/SP/G            HT/PER HT/PER
                 (UTC) (F)     (DEG/KT/KT) (MB)    (FT/S) (FT/S)
BRANDYWINE LGT   0400   74 74  360/ 13/ 14 1020.6R
CAPE MAY NJ      0400   73 79  360/  3/  5 1020.1R
LEWES DE         0400   69 77  270/  5/  6 1020.3S
15NM E FENWICK I 0450   74 78  310/ 10/ 12 1020.5R   2/ 9   2/ 9
OCEAN-CITY-INLET 0400   70 77  330/  3/  4 1019.6R
WACHAPREAGUE VA  0400   68 78  330/  3/  4 1020.4R
GOOSES REEF MD   0500   75 79   50/  8/ 10 1021.8R
COVE POINT MD    0400   74      80/  6/  8 1021.4R
SOLOMONS ISLAND  0400      81                N/A
BISHOPS HEAD MD  0400   73 78   40/  6/  9 1019.6R
PINEY POINT MD   0400           40/  4/  4   N/A
POTOMAC MD       0500   76 79   10/  6/  6 1019.7R   0
CAMBRIDGE MD     0400   72 80   20/  7/  9 1019.9R
LEWISETTA VA     0400   72 80  320/  2/  4 1020.3R
RAPPAHANNOCK LGT 0400           20/ 11/ 12 1020.7R
STINGRAY PT      0500   77 79   40/  8/ 10 1020.9R   1/ 2
YORK RVR RNG VA  0400   76      40/  7/  8 1019.7R
YORKTOWN VA      0400   74 80   20/  5/  5 1020.0R
JAMESTOWN VA     0500   70 81   30/  2/  2   N/A
DOMINION TERM VA 0400   75      40/  3/  4 1020.1R
KIPTOPEKE VA     0400      79   40/  5/  6   N/A
CHES BAY BRIDGE  0400   76 79   20/ 11/ 13 1019.7R
CAPE HENRY VA    0400   76      40/ 10/ 12   N/A
CHESAPEAKE LGHT  0400   76      30/  8/  9 1020.7R
WILLOUBY STN VA  0400   77      30/  8/ 10 1021.1R
CAPE HENRY BUOY  0428      79                N/A     2/10   2/12
1ST LANDING BUOY 0500      78              1019.9R   1/ 3
CAPE CHARLES BUO 0426      79                N/A     3/11   3/11
OFFSHORE WE BUOY 0411      78                N/A     3/ 9   3/ 9
64NM E OF VA BCH 0450   77 78   30/ 12/ 14 1019.5R   3/ 9   3/ 9
DUCK PIER NC     0400   76 78   40/ 13/ 14 1019.1R
44100 DUCK FRF   0424      78                N/A     3/ 9   2/12
44056 DUCK FRF   0411      78                N/A     3/ 8   2/11
OREGON INLET NC  0400   75 78   20/ 14/ 18 1018.8F
HATTERAS NC      0400   76 80   40/  9/ 12 1018.0S
DIAMOND SHLS NC  0450   78 83   30/ 16/ 19 1017.9R   4/ 9   3/ 9


USA.gov is the U.S. government's official web portal to all federal, state and local government web resources and services.